Regional Weather Roundup
Issued by NWS

Home | Current Version | Previous Version | Text Only | Print | Product List | Glossary Off
Versions: 1 2 3 4 5 6 7 8 9 10 11 12 13 14 15 16 17 18 19 20 21 22 23 24 25 26 27 28 29 30 31 32 33 34 35 36 37 38 39 40 41 42 43 44 45 46 47 48 49

000
ASUS45 KSLC 292110
RWRUT

UTAH REGIONAL WEATHER ROUNDUP
NATIONAL WEATHER SERVICE SALT LAKE CITY UT
200 PM MST THU JAN 29 2015

UTZ001>011-023>025-292200-

NORTHERN UTAH

CITY           SKY/WX    TMP DP  RH WIND       PRES   REMARKS
BRIGHAM CITY     N/A     46  34  62 NW7       30.30F
HILL AFB         N/A     46  29  50 N6        30.28F
LOGAN          CLOUDY    38  34  85 CALM      30.33F
OGDEN            N/A     46  36  68 NW7       30.28F
PROVO AIRPORT  MOSUNNY   41  34  75 VRB3      30.28F
SALT LAKE CITY PTSUNNY   44  35  70 NW7       30.29F
VERNAL         CLOUDY    48  29  47 CALM      30.33F
WENDOVER         N/A     45  34  65 SE9       30.29F
HEBER CITY       N/A     39  30  70 CALM      30.30F
WEST JORDAN    SUNNY     46  37  71 N5        30.29F

$$

UTZ012>022-026-027-292200-

SOUTHERN/CENTRAL UTAH

CITY           SKY/WX    TMP DP  RH WIND       PRES   REMARKS
BLANDING       CLOUDY    47  31  51 CALM      30.37F
BRYCE CANYON   PTSUNNY   42  27  55 SE12      30.29F
CEDAR CITY     CLOUDY    45  33  63 N3        30.23F
DELTA            N/A     47  34  62 CALM      30.26F
HANKSVILLE       N/A     50  32  50 CALM      30.31F
MILFORD        CLOUDY    46  34  62 N9        30.25F
MOAB/CYNLANDS  SUNNY     52  32  46 CALM      30.27F
PRICE            N/A     51  25  36 VRB7      30.28F
ST GEORGE        N/A     57  36  44 NW3       30.17F
KANAB            N/A     52  32  46 NE13      30.24F

$$

REGIONAL REPORTS     COLORADO/ARIZONA

CITY           SKY/WX    TMP DP  RH WIND       PRES   REMARKS
CRAIG, CO      PTSUNNY   41  31  67 CALM      30.34F
GRAND JUNCTION PTSUNNY   52  27  38 VRB6      30.28F
RIFLE          MOSUNNY   51  25  36 CALM      30.28F
MONTROSE       CLOUDY    49  28  44 VRB6      30.31F
CORTEZ         CLOUDY    53  28  38 SE5       30.30F
PAGE, AZ       NOT AVBL
GRAND CANYON   PTSUNNY   49  32  52 E13       30.22F
KINGMAN          N/A     60  40  47 NE7       30.12F
FLAGSTAFF        N/A     49  30  48 E7        30.23F

$$

REGIONAL REPORTS    NEVADA/IDAHO/WYOMING

CITY           SKY/WX    TMP DP  RH WIND       PRES   REMARKS
LAS VEGAS, NV  PTSUNNY   64  35  34 VRB3      30.08F
ELY            CLOUDY    41  31  67 N5        30.26F
ELKO             N/A     47  33  58 N7        30.24F
POCATELLO, ID  MOSUNNY   44  35  70 VRB5      30.35F
BURLEY           N/A     42  32  67 E12       30.32F
EVANSTON, WY   CLOUDY    34  28  79 CALM      30.34F
ROCK SPRINGS   SUNNY     37  30  75 NE6       30.36F WCI  32
KEMMERER       MOSUNNY   37  28  70 CALM      30.35F

$$


USA.gov is the U.S. government's official web portal to all federal, state and local government web resources and services.